Location: Authon
(44.2382°N, 6.1303°E)
Time: 07:14:15
(UTC+00:00)

Daily predictions for brighter satellites

Satellite Brightness Start Highest point End
(mag) Time Altitude Azimuth Time Altitude Azimuth Time Altitude Azimuth
Cosmos 1697 Rocket 3.3 16:27:58 10° S 16:33:10 39° ESE 16:38:23 10° NE
Cosmos 2082 3.9 16:28:14 10° NNW 16:33:43 50° ENE 16:39:09 10° SE
CZ-4B R/B 3.9 16:35:47 10° NNW 16:38:30 22° WNW 16:41:14 10° WSW
CZ-4B R/B 4.0 16:34:21 10° S 16:39:32 57° W 16:44:45 10° NNW
Cosmos 1238 Rocket 3.0 16:35:39 10° NNW 16:39:39 68° W 16:42:58 10° S
Cosmos 2278 4.3 16:39:11 10° S 16:44:23 38° ESE 16:49:37 10° NE
Cosmos 1656 3.7 16:40:58 10° SSW 16:46:31 86° ESE 16:52:02 10° NNE
Cosmos 1356 Rocket 3.4 16:42:52 10° S 16:47:00 68° E 16:51:15 10° NNE
YAOGAN 6 4.1 16:45:57 10° ESE 16:48:04 15° ENE 16:50:11 10° NNE
Cosmos 923 Rocket 4.2 16:45:15 10° S 16:50:19 54° ESE 16:55:24 10° NNE
USA 215 4.3 16:46:25 10° ENE 16:51:50 29° N 16:57:17 10° NW
IRS-1C Rocket 4.1 16:47:13 10° SSE 16:52:30 85° ENE 16:57:49 10° NNW
PSLV R/B 4.2 16:49:10 10° N 16:53:23 76° WNW 16:57:35 10° SSW
Cosmos 1805 Rocket 3.6 16:50:17 10° N 16:54:41 88° W 16:59:04 10° S
Cosmos 2056 Rocket 4.3 16:51:44 10° N 16:56:08 28° ENE 17:00:34 10° ESE
NOSS 2-3 (E) 3.8 16:54:43 10° SSW 16:58:57 60° ESE 17:03:54 10° NE
Cosmos 2034 Rocket 4.3 16:55:31 10° N 17:01:37 46° ENE 17:07:42 10° SSE
CZ-4 R/B 2.5 16:58:36 10° ESE 17:01:52 23° ENE 17:05:06 10° NNE
USA 229 DEB 4.1 16:55:34 10° SW 17:02:03 60° NW 17:08:54 10° NNE
USA 229 4.1 16:55:40 10° SW 17:02:09 61° NW 17:08:59 10° NNE
BREEZE-M DEB (TANK) 3.4 16:59:00 10° WNW 17:02:25 29° N 17:03:53 16° NE
Cosmos 724 4.3 16:57:01 10° NNW 17:02:46 56° NE 17:08:26 10° SE
Meteor 2-20 Rocket 4.4 16:59:11 10° S 17:05:17 81° E 17:11:28 10° N
NOSS 3-1 (C) 3.9 16:59:54 10° SW 17:05:23 58° NW 17:11:46 10° NNE
Lacrosse 4 Rocket 1.5 17:01:37 10° SW 17:05:41 74° WNW 17:09:44 10° NNE
Okean-O 2.6 17:02:26 10° SSE 17:06:47 58° ENE 17:11:09 10° N
NOSS 3-1 (A) 3.4 17:01:42 10° SW 17:07:13 83° NW 17:13:39 10° NE
ERBS 3.6 17:04:17 10° W 17:07:20 33° NW 17:10:09 12° NNE
SeaSat 1 2.9 17:03:11 10° ESE 17:07:46 40° NE 17:12:23 10° NNW
NOSS 2-3 (D) 3.7 17:04:20 10° SSW 17:08:37 68° SE 17:13:16 12° NE
Cosmos 1933 4.4 17:15:40 10° SE 17:19:01 25° E 17:20:31 20° NE
Cosmos 1633 Rocket 3.0 17:16:41 10° N 17:21:07 76° E 17:25:32 10° SSE
Envisat 2.9 17:17:22 10° SSE 17:22:23 67° ENE 17:27:27 10° N
Cosmos 1862 3.2 17:18:23 10° N 17:22:23 86° E 17:26:23 10° S
Cosmos 1151 Rocket 3.1 17:20:37 10° S 17:24:52 55° E 17:29:10 10° NNE
Cosmos 1606 4.0 17:21:54 10° SE 17:24:16 21° ESE 17:24:16 21° ESE
CSL-04 Rocket 4.0 17:20:18 10° SE 17:25:11 38° ENE 17:30:04 10° N
Sich 1 3.8 17:22:37 10° NNW 17:26:54 55° W 17:31:11 10° S
Cosmos 2228 Rocket 4.0 17:24:28 10° SE 17:28:12 26° E 17:29:08 24° ENE
Tsikada Rocket 4.2 17:22:28 10° SSE 17:28:34 50° E 17:34:43 10° NNE
SMAP 4.1 17:25:22 10° S 17:29:52 49° W 17:34:24 10° NNW
CENTAUR R/B 4.3 17:28:28 10° NNW 17:33:59 21° NNE 17:37:13 17° NE
Cosmos 1328 Rocket 3.4 17:30:09 10° S 17:34:33 77° E 17:38:58 10° NNE
Cosmos 1666 Rocket 4.1 17:31:58 10° NNW 17:36:17 60° W 17:40:31 10° S
Cosmos 1933 Rocket 3.8 17:33:09 10° N 17:37:20 44° ENE 17:41:30 10° SSE
SL-16 R/B 3.3 17:34:09 10° SSE 17:38:07 22° ESE 17:38:07 22° ESE
Cosmos 1515 Rocket 3.6 17:34:42 10° S 17:38:58 52° E 17:42:37 14° NNE
COSMO-SKYMED 1 2.5 17:34:41 10° NNE 17:39:01 65° ESE 17:43:19 10° S
Cosmos 1980 Rocket 2.1 17:33:24 10° SSW 17:39:02 73° ESE 17:43:59 14° NNE
Cosmos 158 Rocket 3.9 17:37:38 10° S 17:42:53 67° ESE 17:46:56 17° NNE
COBE Rocket 4.4 17:39:49 10° N 17:44:28 57° WNW 17:49:02 10° SSW
Cosmos 1452 Rocket 4.4 17:40:09 10° N 17:44:36 28° ENE 17:44:36 28° ENE
Cosmos 1633 4.3 17:41:29 10° NNW 17:44:50 35° W 17:48:09 10° SSW
Cosmos 2322 Rocket 3.5 17:41:31 10° SSE 17:44:20 20° ESE 17:44:20 20° ESE
Cosmos 2297 Rocket 4.5 17:41:11 10° NW 17:45:48 26° WSW 17:50:23 10° SSW
Cosmos 2227 Rocket 4.3 17:41:43 10° NW 17:46:27 28° WSW 17:51:11 10° SSW
NOSS 2-3 (C) 4.2 17:42:11 10° SW 17:46:30 57° NW 17:50:10 18° NNE
Cosmos 1371 Rocket 3.9 17:41:47 10° NNW 17:47:00 85° ENE 17:52:11 10° SSE
Geosat 4.0 17:44:29 13° NNE 17:48:59 83° WNW 17:54:01 10° SSW
USA 116 4.3 17:48:38 14° NNE 17:52:43 61° ESE 17:57:52 10° S
GEOS 3 Rocket 3.7 17:49:26 19° NNE 17:53:12 75° NW 17:58:27 10° SW
ATLAS 3B R/B 4.2 17:51:38 10° NNW 17:55:54 17° NNE 17:57:02 17° NNE
YAOGAN 1 2.4 17:58:09 10° SSE 18:02:29 81° ENE 18:06:49 10° N
Cosmos 2263 Rocket 2.3 17:57:26 10° NNW 18:02:52 50° ENE 18:04:09 42° E
Ariane Rocket 3.8 18:06:44 34° NNE 18:06:44 34° NNE 18:10:09 10° N
GPS 2-04 Rocket1 4.4 18:04:15 10° SW 18:06:34 19° S 18:06:34 19° S
Cosmos 1470 Rocket 4.0 18:03:10 10° NNW 18:07:38 63° W 18:12:02 10° S
COSMOS 2455 4.2 18:07:02 10° SSE 18:09:52 23° SE 18:09:52 23° SE
Cosmos 1697 Rocket 4.1 18:12:03 10° WSW 18:17:10 34° NW 18:22:19 10° N
APEX 4.4 18:15:03 10° WSW 18:18:00 29° WNW 18:18:12 28° NW
YAOGAN 6 4.2 18:18:06 10° SSW 18:21:18 34° W 18:24:31 10° NNW
USA 215 3.7 18:33:21 43° NE 18:33:54 43° NNE 18:39:59 10° NW
CZ-4 R/B 3.2 18:33:02 10° SSW 18:36:44 31° W 18:40:24 10° NNW
Lacrosse 4 Rocket 4.2 18:44:08 10° NW 18:45:06 11° NW 18:46:04 10° NNW
SeaSat 1 4.2 18:41:02 10° S 18:45:21 30° WSW 18:49:41 10° NW
SL-16 R/B 3.4 19:16:30 10° SW 19:20:04 37° WSW 19:20:04 37° WSW
Cosmos 1980 Rocket 4.3 19:19:24 10° W 19:23:39 21° NW 19:25:47 17° NNW
CENTAUR R/B 3.8 19:19:06 10° NNW 19:24:25 40° N 19:24:25 40° N
Cosmos 2322 Rocket 3.9 19:23:44 10° SW 19:26:13 27° SW 19:26:13 27° SW
Cosmos 2263 Rocket 4.1 19:42:00 10° NW 19:45:55 24° W 19:45:55 24° W
ATLAS 3B R/B 4.4 19:41:56 10° NNW 19:44:18 22° NNW 19:44:18 22° NNW
